Погода в Нарбонне

Франция     43°10′49″N   3°00′04″E
темп.,
°C
ветер,
м/с
пор.,
м/с
влажн.,
%
обл.,
%
осадки,
мм/ч
давл.,
гПа
погр.,
м
6 мая, чт
чт623:00+13з37635 0.0 1017236
02:00+11зюз247520 0.0 1016110
05:00+10зсз228590 0.0 101554
08:00+12з127587 0.0 1015105
11:00+17зюз235676 0.0 1015511
14:00+23юз463861 0.0 10131833
17:00+22сз894799 0.0 10131490
20:00+19зсз4859100 0.0 1014703
7 мая, пт
пт723:00+17зсз4859100 0.0 1016655
02:00+14з357397 0.0 1015205
05:00+14з41077100 0.0 1015463
08:00+14з5108193 0.1 1016623
11:00+16з6117395 0.1 1017999
14:00+16з51078100 0.2 10181031
17:00+19сз6105799 0.0 10171064
20:00+17зсз4864100 0.0 1018597
8 мая, сб
сб823:00+14зсз368083 0.0 1019176
02:00+13зсз12845 0.0 101871
05:00+12ссз118359 0.0 101818
08:00+14св127454 0.0 1018102
11:00+19в44605 0.0 1017723
14:00+20вюв67565 0.0 1016821
17:00+20вюв686744 0.0 1015896
20:00+17в697977 0.0 1014734
9 мая, вс
вс923:00+16в71185100 0.0 1014801
02:00+16в71286100 0.0 1013865
05:00+16вюв7148680 0.0 1012875
08:00+16вюв7148358 0.0 1012867
11:00+18вюв9136988 0.0 1012929
14:00+19юв91366100 0.0 1010920
17:00+17вюв81279100 0.0 1008926
20:00+16вюв61285100 0.1 1007789
10 мая, пн
пн1023:00+16вюв4994100 0.6 1007563
02:00+16в2496100 0.6 1008361
05:00+16ссв1396100 0.3 1007213
08:00+15юз0192100 0.5 1008200
11:00+15ююв1493100 1.4 1007441
14:00+16юз3591100 6.7 1006438
17:00+17сз556258 2.8 1007893
20:00+15з4675100 3.1 1008218